Meteo pe oră la Dzikowo

Astăzi, 1 Martie, Luni

Timp Temperatura Precipitaţii Vânt Presiune Umiditate
00:00 +1°C° 0 mm 2 m/s 770 mmHg 95%
01:00 -1°C° 0 mm 2 m/s 770 mmHg 96%
02:00 -1°C° 0 mm 2 m/s 770 mmHg 96%
03:00 -1°C° 0 mm 2 m/s 770 mmHg 95%
04:00 +1°C° 0 mm 1 m/s 770 mmHg 95%
05:00 -1°C° 0 mm 2 m/s 770 mmHg 95%
06:00 -1°C° 0 mm 2 m/s 770 mmHg 95%
07:00 +1°C° 0 mm 2 m/s 771 mmHg 95%
08:00 +2°C° 0 mm 2 m/s 771 mmHg 90%
09:00 +3°C° 0 mm 2 m/s 771 mmHg 85%
10:00 +5°C° 0 mm 2 m/s 771 mmHg 80%
11:00 +6°C° 0 mm 2 m/s 771 mmHg 77%
12:00 +7°C° 0 mm 3 m/s 771 mmHg 75%
13:00 +8°C° 0 mm 3 m/s 771 mmHg 72%
14:00 +8°C° 0 mm 3 m/s 771 mmHg 73%
15:00 +8°C° 0 mm 3 m/s 770 mmHg 74%
16:00 +8°C° 0 mm 3 m/s 770 mmHg 75%
17:00 +7°C° 0 mm 3 m/s 770 mmHg 79%
18:00 +5°C° 0 mm 3 m/s 770 mmHg 84%
19:00 +3°C° 0 mm 3 m/s 770 mmHg 89%
20:00 +3°C° 0 mm 3 m/s 770 mmHg 90%
21:00 +3°C° 0 mm 3 m/s 770 mmHg 90%
22:00 +2°C° 0 mm 3 m/s 770 mmHg 91%
23:00 +2°C° 0 mm 3 m/s 770 mmHg 91%

Mâine, 2 Martie, Marţi

Timp Temperatura Precipitaţii Vânt Presiune Umiditate
00:00 +2°C° 0 mm 3 m/s 770 mmHg 91%
01:00 +1°C° 0 mm 4 m/s 770 mmHg 92%
02:00 +1°C° 0 mm 4 m/s 769 mmHg 92%
03:00 +1°C° 0 mm 3 m/s 769 mmHg 93%
04:00 +1°C° 0 mm 3 m/s 768 mmHg 93%
05:00 +1°C° 0 mm 3 m/s 768 mmHg 93%
06:00 0°C° 0 mm 4 m/s 769 mmHg 93%
07:00 0°C° 0 mm 4 m/s 769 mmHg 92%
08:00 +1°C° 0 mm 4 m/s 769 mmHg 86%
09:00 +4°C° 0 mm 4 m/s 768 mmHg 80%
10:00 +5°C° 0 mm 5 m/s 768 mmHg 73%
11:00 +6°C° 0 mm 5 m/s 769 mmHg 69%
12:00 +8°C° 0 mm 5 m/s 769 mmHg 65%
13:00 +9°C° 0 mm 5 m/s 769 mmHg 61%
14:00 +10°C° 0 mm 4 m/s 768 mmHg 62%
15:00 +10°C° 0 mm 4 m/s 768 mmHg 63%
16:00 +10°C° 0 mm 3 m/s 768 mmHg 65%
17:00 +8°C° 0 mm 3 m/s 768 mmHg 70%
18:00 +7°C° 0 mm 2 m/s 768 mmHg 76%
19:00 +6°C° 0 mm 2 m/s 769 mmHg 82%
20:00 +5°C° 0 mm 2 m/s 769 mmHg 85%
21:00 +4°C° 0 mm 2 m/s 769 mmHg 88%
22:00 +4°C° 0 mm 2 m/s 769 mmHg 91%
23:00 +4°C° 0 mm 1 m/s 769 mmHg 91%

Poimâine, 3 Martie, Miercuri

Timp Temperatura Precipitaţii Vânt Presiune Umiditate
00:00 +4°C° 0 mm 1 m/s 769 mmHg 92%
01:00 +3°C° 0 mm 1 m/s 769 mmHg 92%
02:00 +3°C° 0 mm 1 m/s 769 mmHg 91%
03:00 +3°C° 0 mm 1 m/s 769 mmHg 91%
04:00 +2°C° 0 mm 1 m/s 768 mmHg 90%
05:00 +2°C° 0 mm 1 m/s 768 mmHg 90%
06:00 +2°C° 0 mm 1 m/s 768 mmHg 90%
07:00 +2°C° 0 mm 1 m/s 768 mmHg 90%
08:00 +4°C° 0 mm 1 m/s 768 mmHg 85%
09:00 +5°C° 0 mm 1 m/s 768 mmHg 80%
10:00 +6°C° 0 mm 2 m/s 767 mmHg 76%
11:00 +7°C° 0 mm 2 m/s 767 mmHg 71%
12:00 +8°C° 0 mm 2 m/s 766 mmHg 66%
13:00 +9°C° 0 mm 2 m/s 766 mmHg 61%
14:00 +9°C° 0 mm 2 m/s 765 mmHg 62%
15:00 +9°C° 0 mm 2 m/s 764 mmHg 62%
16:00 +9°C° 0 mm 2 m/s 763 mmHg 63%
17:00 +8°C° 0 mm 2 m/s 763 mmHg 67%
18:00 +7°C° 0 mm 2 m/s 762 mmHg 71%
19:00 +6°C° 0 mm 2 m/s 762 mmHg 76%
20:00 +4°C° 0 mm 3 m/s 761 mmHg 79%
21:00 +4°C° 0 mm 3 m/s 761 mmHg 81%
22:00 +3°C° 0 mm 3 m/s 760 mmHg 84%
23:00 +3°C° 0 mm 3 m/s 759 mmHg 85%

4 Martie, Joi

Timp Temperatura Precipitaţii Vânt Presiune Umiditate
00:00 +3°C° 0 mm 3 m/s 759 mmHg 87%
01:00 +2°C° 0 mm 3 m/s 758 mmHg 88%
02:00 +2°C° 0 mm 3 m/s 758 mmHg 89%
03:00 +2°C° 0 mm 3 m/s 757 mmHg 91%
04:00 +2°C° 0 mm 3 m/s 756 mmHg 92%
05:00 +2°C° 0 mm 3 m/s 756 mmHg 93%
06:00 +2°C° 0 mm 3 m/s 756 mmHg 94%
07:00 +2°C° 0 mm 3 m/s 755 mmHg 94%
08:00 +3°C° 0 mm 3 m/s 755 mmHg 91%
09:00 +4°C° 0 mm 4 m/s 755 mmHg 88%
10:00 +5°C° 0 mm 4 m/s 755 mmHg 85%
11:00 +5°C° 0 mm 4 m/s 755 mmHg 83%
12:00 +5°C° 0 mm 4 m/s 755 mmHg 81%
13:00 +5°C° 0 mm 4 m/s 754 mmHg 79%
14:00 +5°C° 0 mm 3 m/s 754 mmHg 79%
15:00 +5°C° 0 mm 3 m/s 754 mmHg 79%
16:00 +5°C° 0 mm 3 m/s 753 mmHg 79%
17:00 +4°C° 0 mm 3 m/s 753 mmHg 79%
18:00 +5°C° 0 mm 2 m/s 753 mmHg 80%
19:00 +4°C° 0 mm 2 m/s 753 mmHg 81%
20:00 +4°C° 0 mm 2 m/s 753 mmHg 83%
21:00 +3°C° 0 mm 2 m/s 753 mmHg 85%
22:00 +2°C° 0 mm 3 m/s 753 mmHg 87%
23:00 +1°C° 0.1 mm 3 m/s 753 mmHg 90%

5 Martie, Vineri

Timp Temperatura Precipitaţii Vânt Presiune Umiditate
00:00 -1°C° 0.1 mm 4 m/s 753 mmHg 92%
01:00 -1°C° 0.1 mm 4 m/s 753 mmHg 94%
02:00 -2°C° 0.3 mm 5 m/s 753 mmHg 94%
03:00 -2°C° 0.3 mm 5 m/s 753 mmHg 95%
04:00 -3°C° 0.3 mm 6 m/s 753 mmHg 95%
05:00 -4°C° 0.4 mm 5 m/s 754 mmHg 92%
06:00 -4°C° 0.4 mm 5 m/s 754 mmHg 89%
07:00 -4°C° 0.4 mm 5 m/s 754 mmHg 86%
08:00 -2°C° 0 mm 5 m/s 755 mmHg 77%
09:00 -2°C° 0 mm 5 m/s 755 mmHg 69%
10:00 -1°C° 0 mm 5 m/s 756 mmHg 60%
11:00 0°C° 0 mm 4 m/s 757 mmHg 57%
12:00 0°C° 0 mm 4 m/s 757 mmHg 55%
13:00 +2°C° 0 mm 3 m/s 758 mmHg 52%
14:00 0°C° 0.1 mm 4 m/s 758 mmHg 56%
15:00 0°C° 0.1 mm 4 m/s 758 mmHg 59%
16:00 0°C° 0.1 mm 5 m/s 758 mmHg 62%
17:00 -1°C° 0 mm 4 m/s 759 mmHg 64%
18:00 -2°C° 0 mm 4 m/s 760 mmHg 66%
19:00 -4°C° 0 mm 3 m/s 760 mmHg 68%
20:00 -4°C° 0 mm 3 m/s 761 mmHg 70%
21:00 -3°C° 0 mm 2 m/s 761 mmHg 71%
22:00 -3°C° 0 mm 2 m/s 762 mmHg 73%
23:00 -3°C° 0 mm 2 m/s 762 mmHg 74%

6 Martie, Sâmbătă

Timp Temperatura Precipitaţii Vânt Presiune Umiditate
00:00 -3°C° 0 mm 2 m/s 763 mmHg 74%
01:00 -4°C° 0 mm 3 m/s 763 mmHg 75%
02:00 -4°C° 0 mm 3 m/s 763 mmHg 73%
03:00 -4°C° 0 mm 3 m/s 764 mmHg 71%
04:00 -4°C° 0 mm 3 m/s 764 mmHg 70%
05:00 -4°C° 0 mm 3 m/s 765 mmHg 70%
06:00 -4°C° 0 mm 3 m/s 765 mmHg 69%
07:00 -4°C° 0 mm 3 m/s 766 mmHg 69%
08:00 -3°C° 0 mm 4 m/s 766 mmHg 62%
09:00 -2°C° 0 mm 4 m/s 767 mmHg 55%
10:00 -1°C° 0 mm 4 m/s 767 mmHg 47%
11:00 0°C° 0 mm 4 m/s 767 mmHg 46%
12:00 0°C° 0 mm 4 m/s 767 mmHg 44%
13:00 0°C° 0 mm 4 m/s 768 mmHg 42%
14:00 0°C° 0 mm 4 m/s 768 mmHg 43%
15:00 +1°C° 0 mm 3 m/s 768 mmHg 44%
16:00 +1°C° 0 mm 3 m/s 768 mmHg 45%
17:00 +1°C° 0 mm 2 m/s 768 mmHg 50%
18:00 -1°C° 0 mm 2 m/s 768 mmHg 54%
19:00 -2°C° 0 mm 2 m/s 769 mmHg 58%
20:00 -2°C° 0 mm 2 m/s 769 mmHg 59%
21:00 -3°C° 0 mm 2 m/s 769 mmHg 60%
22:00 -3°C° 0 mm 2 m/s 769 mmHg 60%
23:00 -3°C° 0 mm 2 m/s 769 mmHg 61%
Arată mai mult

Formular de consimțământ

Meteoprog și furnizorii noștri de servicii pot stoca și accesa date personale, precum cookies, identificatori de dispozitiv sau alte tehnologii similare pe dispozitivul dumneavoastră și procesa astfel de date pentru a personaliza conținutul și reclamele, dar și pentru a oferi caracteristici de social media și pentru a analiza traficul.

  • Stocarea și/sau accesarea informațiilor pe dispozitivul dumneavoastră

    Cookies, identificatori de dispozitiv sau alte informații pot fi stocate sau accesate pe dispozitiv în scopurile indicate mai sus.

  • Reclame și conținut personalizat, evaluarea reclamelor și a conținutului, informații despre audiențe și dezvoltarea produselor

    Reclamele și conținutul pot fi personalizate pe baza unui profil. Pot fi adăugate date suplimentare pentru a personaliza mai bine reclamele și conținutul. Performanța reclamelor și conținutului poate fi măsurată. Pot fi obținute informații despre utilizatorii care au văzut reclamele și conținutul. Aceste date pot fi utilizate pentru a dezvolta sau îmbunătăți experiența utilizatorilor, sistemele și software-ul.

Dând clic pe ‘Sunt de acord’, permiteți utilizarea cookie-urilor menționate, a identificatorilor de dispozitiv, balizelor web sau altor tehnologii similare. Setările pot fi modificate din browser-ul dispozitivului dumneavoastră.

În anumite scopuri, interesele legitime pot prima asupra consimțământului. Puteți citi mai multe informații în acest sens în Politica privind Confidențialitatea Datelor și Cookie.